This demonstration page uses our WeatherBlox Daily Observations layout. Learn more.

36.17497, -115.13722

Hourly Observations for February 27, 2016

Temp ( °F °C ) Dew Point ( °F °C ) Humidity (%) Winds ( mph kmh ) Pressure ( in mb ) Visibility ( mi km ) Precip ( " mm )
12:53 am 00:53 Clear 56 13.3 28 -2.2 34 34 NNW 6 9 30.06 1018 10 16.0934 0 0
1:53 am 01:53 Clear 56 13.3 27 -2.8 33 33 N 8 13 30.04 1017 10 16.0934 0 0
2:53 am 02:53 Clear 57 13.9 26 -3.3 30 30 N 7 11 30.03 1017 10 16.0934 0 0
3:53 am 03:53 Clear 59 15 25 -3.9 27 27 N 8 13 30.03 1017 10 16.0934 0 0
4:53 am 04:53 Clear 58 14.4 25 -3.9 28 28 N 9 15 30.05 1018 10 16.0934 0 0
5:53 am 05:53 Clear 54 12.2 25 -3.9 33 33 SSE 5 7 30.06 1018 10 16.0934 0 0
6:53 am 06:53 Sunny 55 12.8 25 -3.9 31 31 W 6 9 30.08 1019 10 16.0934 0 0
7:53 am 07:53 Sunny 59 15 26 -3.3 28 28 Calm 30.09 1019 10 16.0934 0 0
8:53 am 08:53 Sunny 64 17.8 27 -2.8 25 25 SE 5 7 30.09 1019 10 16.0934 0 0
9:53 am 09:53 Sunny 66 18.9 25 -3.9 21 21 SE 5 7 30.06 1018 10 16.0934 0 0
10:53 am 10:53 Sunny 70 21.1 26 -3.3 19 19 Calm 30.06 1018 10 16.0934 0 0
11:53 am 11:53 Sunny 72 22.2 25 -3.9 17 17 S 6 9 30.05 1018 10 16.0934 0 0
12:53 pm 12:53 Sunny 74 23.3 25 -3.9 16 16 SSE 3 6 30.01 1016 10 16.0934 0 0
1:53 pm 13:53 Sunny 77 25 25 -3.9 14 14 S 8 13 29.98 1015 10 16.0934 0 0
2:53 pm 14:53 Sunny 78 25.6 25 -3.9 14 14 VRB 6 9 29.96 1014 10 16.0934 0 0
3:53 pm 15:53 Sunny 78 25.6 25 -3.9 14 14 S 7 11 29.94 1014 10 16.0934 0 0
4:53 pm 16:53 Sunny 77 25 24 -4.4 14 14 SSE 7 11 29.94 1014 10 16.0934 0 0
5:53 pm 17:53 Clear 72 22.2 23 -5 16 16 SE 5 7 29.96 1015 10 16.0934 0 0
6:53 pm 18:53 Clear 71 21.7 24 -4.4 17 17 NNW 6 9 29.98 1015 10 16.0934 0 0
7:53 pm 19:53 Clear 67 19.4 25 -3.9 20 20 Calm 29.99 1016 10 16.0934 0 0
8:53 pm 20:53 Clear 63 17.2 27 -2.8 26 26 NW 7 11 29.99 1016 10 16.0934 0 0
9:53 pm 21:53 Clear 61 16.1 24 -4.4 24 24 NNW 9 15 30.01 1016 10 16.0934 0 0
10:53 pm 22:53 Clear 62 16.7 17 -8.3 17 17 NNW 10 17 30 1016 10 16.0934 0 0
11:53 pm 23:53 Clear 61 16.1 17 -8.3 18 18 W 12 19 30 1016 10 16.0934 0 0

Powered by AerisWeather